DW7361 Weather Reports


time (UTC)temp
C
wind
direction
speed
KPH
gust
KPH
rain 1hr
cm
rain 24hr
cm
rain mn
cm
humidity
%
barometer
mb
20260901063029 21 248 0.0 0.0 0.00 0.08 0.05 1 1016.0
20260901061510 21 248 0.0 0.0 0.00 0.08 0.05 1 1016.2
20260901060007 21 248 0.0 0.0 0.00 0.08 0.05 1 1016.3
20260901054502 21 248 0.0 0.0 0.00 0.08 0.05 1 1016.3
20260901053103 21 248 0.0 0.0 0.05 0.08 0.05 1 1016.3
20260901051553 21 248 0.0 0.0 0.05 0.08 0.05 1 1016.3
20260901050049 21 248 0.0 0.0 0.05 0.08 0.05 1 1016.4
20260901044543 21 248 0.0 0.0 0.05 0.08 0.05 1 1016.5
20260901043039 21 242 0.0 0.0 0.00 0.03 0.00 1 1016.7
20260901041534 21 241 0.0 0.0 0.00 0.03 0.00 1 1017.2
20260901040031 21 242 0.0 0.0 0.00 0.03 0.00 1 1017.3
20260901034536 21 242 0.0 0.0 0.00 0.03 0.03 1 1017.3
20260901033026 21 242 0.0 0.0 0.00 0.03 0.03 1 1017.2
20260901031530 21 242 0.0 0.0 0.00 0.03 0.03 1 1017.3
20260901030013 21 242 0.0 0.0 0.00 0.03 0.03 1 1017.4
20260901024508 21 242 0.0 0.0 0.00 0.03 0.03 1 1017.3
20260901023003 21 242 0.0 0.0 0.00 0.03 0.03 1 1017.3
20260901021601 21 242 0.0 0.0 0.00 0.03 0.03 1 1017.5
20260901020057 21 242 0.0 0.0 0.00 0.03 0.03 1 1017.3
20260901014551 21 242 0.0 0.0 0.00 0.15 0.03 1 1017.3
20260901013048 21 242 0.0 0.0 0.00 0.15 0.03 1 1017.4
20260901011542 21 242 0.0 0.0 0.00 0.15 0.03 1 1017.3
20260901010041 21 242 0.0 0.0 0.00 0.15 0.03 1 1017.3
20260901004532 21 242 0.0 0.0 0.00 0.15 0.03 1 1017.3
20260901003027 21 242 0.0 0.0 0.00 0.15 0.03 1 1017.2
20260901001523 22 242 0.0 0.0 0.00 0.15 0.03 1 1017.1
20260901000024 22 242 0.0 0.0 0.00 0.15 0.03 1 1017.0
20260831234514 22 242 0.0 0.0 0.00 0.15 0.03 5 1016.8
20260831233010 22 242 0.0 0.0 0.00 0.15 0.03 20 1016.8
20260831231506 23 242 0.0 0.0 0.00 0.15 0.03 33 1017.0
20260831230002 24 243 0.0 0.0 0.00 0.15 0.03 38 1017.3
20260831224558 25 243 0.0 0.0 0.00 0.15 0.03 41 1017.4
20260831223058 25 243 0.0 0.0 0.00 0.15 0.03 42 1017.5
20260831221548 26 243 0.0 0.0 0.00 0.15 0.03 44 1017.4
20260831220046 26 264 0.0 0.0 0.00 0.15 0.03 36 1017.5
20260831214554 25 264 0.0 0.0 0.00 0.15 0.03 35 1017.6
20260831213035 25 264 0.0 0.0 0.00 0.15 0.03 28 1018.0
20260831211534 23 264 0.0 0.0 0.00 0.15 0.03 29 1018.1
20260831210035 23 264 0.0 0.0 0.00 0.15 0.03 17 1018.1
20260831204524 23 264 0.0 0.0 0.00 0.15 0.03 7 1018.1
20260831203017 23 264 0.0 0.0 0.00 0.15 0.03 22 1018.1
20260831201513 23 264 0.0 0.0 0.00 0.15 0.03 30 1018.4
20260831200009 24 264 0.0 0.0 0.00 0.15 0.03 36 1018.3
20260831194504 25 264 0.0 0.0 0.00 0.15 0.03 43 1018.4
20260831193131 25 264 0.0 0.0 0.00 0.15 0.03 42 1018.6
20260831191555 25 264 0.0 0.0 0.00 0.15 0.03 43 1018.8
20260831190053 25 264 0.0 0.0 0.00 0.15 0.03 45 1018.9
20260831184548 25 264 0.0 0.0 0.00 0.15 0.03 46 1018.9
20260831183053 25 264 0.0 0.0 0.00 0.15 0.03 48 1018.9
20260831181550 25 264 0.0 0.0 0.00 0.15 0.03 48 1018.9
20260831180039 26 264 0.0 0.0 0.00 0.15 0.03 53 1018.9
20260831174530 25 264 0.0 1.6 0.00 0.15 0.03 54 1019.2
20260831173027 26 264 0.0 0.0 0.00 0.15 0.03 54 1019.2
20260831171522 26 264 0.0 1.6 0.00 0.15 0.03 54 1019.1
20260831170018 26 263 0.0 1.6 0.00 0.15 0.03 53 1019.1
20260831164512 26 266 1.6 4.8 0.00 0.15 0.03 52 1019.1
20260831163008 26 264 1.6 4.8 0.00 0.15 0.03 49 1019.2
20260831161506 25 290 0.0 1.6 0.00 0.15 0.03 41 1019.3
20260831160109 25 267 0.0 4.8 0.00 0.15 0.03 33 1019.4
20260831154609 24 259 0.0 3.2 0.00 0.15 0.03 27 1019.4
20260831153051 23 223 0.0 0.0 0.00 0.15 0.03 22 1019.4
20260831151549 23 151 0.0 0.0 0.00 0.15 0.03 18 1019.4
20260831150049 22 150 0.0 0.0 0.00 0.15 0.03 19 1019.6
20260831144538 22 238 0.0 1.6 0.00 0.15 0.03 17 1019.7
20260831143035 22 235 0.0 0.0 0.00 0.15 0.03 1 1019.8
20260831141531 22 267 0.0 0.0 0.03 0.15 0.03 1 1019.9
20260831140023 22 266 0.0 0.0 0.03 0.15 0.03 1 1019.7
20260831134519 22 267 0.0 1.6 0.03 0.15 0.03 1 1019.6
20260831133014 21 167 0.0 3.2 0.03 0.15 0.03 1 1019.6
20260831131509 21 129 0.0 0.0 0.00 0.13 0.00 1 1019.6
20260831130005 21 130 0.0 0.0 0.00 0.13 0.00 1 1019.6
20260831124601 21 122 0.0 0.0 0.00 0.13 0.00 1 1019.6
20260831123056 21 122 0.0 0.0 0.00 0.13 0.00 1 1019.7
20260831121552 21 123 0.0 0.0 0.00 0.13 0.00 1 1019.5
20260831120048 20 122 0.0 0.0 0.00 0.13 0.00 1 1019.6
20260831114543 20 122 0.0 0.0 0.00 0.13 0.00 1 1019.5
20260831113044 20 122 0.0 0.0 0.00 0.13 0.00 1 1019.3
20260831111542 20 122 0.0 0.0 0.00 0.13 0.00 1 1019.1
20260831110033 20 123 0.0 0.0 0.00 0.13 0.00 1 1019.0
20260831104527 20 122 0.0 0.0 0.00 0.13 0.00 1 1018.9
20260831103021 20 123 0.0 0.0 0.00 0.13 0.00 1 1018.9
20260831101517 20 122 0.0 0.0 0.00 0.13 0.00 1 1018.8
20260831100016 20 122 0.0 0.0 0.00 0.13 0.00 1 1018.5
20260831094522 20 122 0.0 0.0 0.00 0.13 0.00 1 1018.3
20260831093009 20 122 0.0 0.0 0.00 0.13 0.00 1 1018.3
20260831091559 20 123 0.0 0.0 0.00 0.13 0.00 1 1018.2
20260831090118 20 122 0.0 0.0 0.00 0.13 0.00 1 1018.2
20260831084550 20 122 0.0 0.0 0.00 0.13 0.00 1 1018.3
20260831083102 20 123 0.0 0.0 0.00 0.13 0.00 1 1018.2
20260831081553 21 122 0.0 0.0 0.00 0.13 0.00 1 1018.2
20260831080107 21 123 0.0 0.0 0.00 0.13 0.00 1 1018.2
20260831074533 21 123 0.0 0.0 0.00 0.13 0.00 1 1018.3
20260831073029 21 122 0.0 0.0 0.00 0.13 0.00 1 1018.2
20260831071540 21 122 0.0 0.0 0.00 0.13 0.00 1 1018.1
20260831070023 21 122 0.0 0.0 0.00 0.13 0.00 1 1018.2
20260831064515 21 123 0.0 0.0 0.00 0.13 0.00 1 1018.1